{"data":{"norad_id":59224,"epoch":"2026-09-22T22:23:49.614432Z","epoch_age_seconds":47769,"freshness":"FRESH","line1":"1 59224U 24047A   26265.93321313  .00005407  00000+0  24880-3 0  9995","line2":"2 59224  97.6724 243.2022 0014737  83.7947 276.4967 15.20671202139598","mean_motion":15.20671202,"eccentricity":0.0014737,"inclination_deg":97.6724,"raan_deg":243.2022,"arg_perigee_deg":83.7947,"mean_anomaly_deg":276.4967,"bstar":0.0002488,"rev_number":13959,"period_min":94.695026650475,"perigee_km":493.67287437893,"apogee_km":513.95673913416,"semimajor_km":6881.9518067565,"source":"CELESTRAK","updated_at":"2026-09-23T09:00:19.235916Z"}}